Location: Unspecified
(50.7693°N, 0.0000°E)
Time: 12:51:36
(UTC+00:00)

SR - Pass Details

Date: 01 July 2019
Orbit: 578 x 878 km, 66.7° (Epoch: 19 August)

Event Time Altitude Azimuth Distance (km) Brightness Sun altitude
Rises 11:05:10 0° 313° (NW) 3,058 ? 60.1°
Reaches altitude 10° 11:07:49 10° 299° (WNW) 2,190 ? 60.3°
Maximum altitude 11:11:41 23° 248° (WSW) 1,554 ? 60.5°
Drops below altitude 10° 11:15:48 10° 198° (SSW) 2,334 ? 60.8°
Sets 11:18:44 0° 184° (S) 3,310 ? 61.0°
